Other Public Products
Issued by NWS Grand Forks, ND

Home | Current Version | Previous Version | Graphics & Text | Print | Product List | Glossary On
Versions: 1 2 3 4 5 6 7 8 9 10 11 12 13 14 15 16 17 18 19 20 21 22 23 24 25 26 27 28 29 30 31 32 33 34 35 36 37 38 39 40 41 42 43 44 45 46 47 48 49 50
000
FPUS83 KFGF 201031
OPUFGF
PRAIRIE TO PINES WEATHER ROUNDUP
NATIONAL WEATHER SERVICE EASTERN NORTH DAKOTA/GRAND FORKS ND
500 AM CDT WED AUG 20 2014

 **SATELLITE DATA USED TO AUGMENT SKY COVER AT AUTOMATED STATIONS**
 *****  WEATHER ACROSS EASTERN NORTH DAKOTA  *****

CITY           SKY/WX    TMP DP  RH WIND       PRES   REMARKS
GRAND FORKS    CLEAR     63  61  93 S5        29.76S
GRAND FORKS AF CLEAR     63  63 100 SE5       29.77R
GRAND CITY NWS   N/A     52 N/A N/A S5          N/A
BUXTON           N/A     63  62  99 SE5         N/A
DEVILS LAKE    PTCLDY    68  61  77 SE7       29.73S
FARGO          PTCLDY    67  62  84 SE8       29.78R
WAHPETON ARPT  MOSUNNY   61  59  94 E7        29.78F
$$

 *****  WEATHER ACROSS CENTRAL AND WESTERN NORTH DAKOTA  *****

CITY           SKY/WX    TMP DP  RH WIND       PRES   REMARKS
JAMESTOWN      CLEAR     65  62  90 SE8       29.75F
BISMARCK       CLEAR     66  61  84 E7        29.70S
MINOT          CLEAR     63  60  90 E5        29.67S
MINOT AFB      CLEAR     64  63  99 SE8       29.66S
GARRISON         N/A     66  63  90 SE6       29.68F
WILLISTON      MOCLDY    67  60  78 SE5       29.63S
DICKINSON      CLEAR     65  59  81 S9        29.66S
HETTINGER      MOCLDY    67  61  81 SE7       29.70S
$$

 *****  OTHER OBSERVATIONS NORTHEAST NORTH DAKOTA  *****

CITY           SKY/WX    TMP DP  RH WIND       PRES   REMARKS
WALHALLA         N/A     63  63 100 SE10        N/A
LANGDON        FAIR      63  61  94 S7        29.76S
CAVALIER       FAIR      63  61  94 SE5       29.76S
GRAFTON        FAIR      59  59 100 SE6       29.76S
CANDO          PTSUNNY   64  64 100 SE6       29.74S
FORT TOTTEN      N/A     66  63  91 SE7       29.95S
ROLLA          FOG       57  57 100 S3        29.76S VSB 1/2
RUGBY          NOT AVBL
 ***** THE ABOVE OBSERVATIONS ARE NON NWS ARE NOT QUALITY
        CONTROLLED AND MAY MIS-REPORT RAIN FOR SNOW...
$$

 *****  OTHER OBSERVATIONS SOUTHEAST NORTH DAKOTA *****

CITY           SKY/WX    TMP DP  RH WIND       PRES   REMARKS
COOPERSTOWN    NOT AVBL
VALLEY CITY    FAIR      64  64 100 SE5       29.77S
OAKES          NOT AVBL
GWINNER        SUNNY     63  63 100 CALM      29.77F
BUFFALO          N/A     63  60  91 SE7         N/A
WYNDMERE       NOT AVBL
 ***** THE ABOVE OBSERVATIONS ARE NON NWS ARE NOT QUALITY
       CONTROLLED AND MAY MIS-REPORT RAIN FOR SNOW...
$$

  *****  WEATHER ACROSS NORTHERN MINNESOTA  *****

CITY           SKY/WX    TMP DP  RH WIND       PRES   REMARKS
FLAG ISLAND    CLEAR     68  63  83 S9        29.81S
WARROAD        MOCLDY    63  59  88 SE5       29.82S
ROSEAU         CLEAR     63  57  82 SE5       29.81S
HALLOCK        PTCLDY    63  61  94 SE7       29.77R
THF RVR FALLS  CLEAR     61  59  94 SE7       29.80S
HALSTAD          N/A     60  59  96 SE6         N/A
FOSSTON        CLEAR     59  55  88 SE5       29.82S
BAUDETTE       CLEAR     58  57  97 SE3       29.83S
WASKISH        MOCLDY    57  57 100 CALM      29.84S
CROOKSTON      CLEAR     61  61 100 SE6       29.79S
$$
  *****  WEATHER ACROSS CENTRAL AND WEST MINNESOTA  *****

CITY           SKY/WX    TMP DP  RH WIND       PRES   REMARKS
BEMIDJI        CLEAR     58  58  99 CALM      29.84S FOG
PARK RAPIDS    CLEAR     60  59  96 CALM      29.84R
WADENA         FOG       57  55  94 CALM      29.83S VSB 1/2
DETROIT LAKES  CLEAR     64  63  94 SE3       29.83S
MOORHEAD       PTCLDY    64  64 100 SE5       29.79S
FERGUS FALLS   PTCLDY    66  63  88 E6        29.80S
ELBOW LAKE     FAIR      65  62  91 E6        29.79F
MORRIS MN      PTCLDY    63  63 100 E8        29.78F FOG
STAPLES        CLEAR     61  59  94 CALM      29.84R
WHEATON        PTCLDY    57  57 100 E7        29.79F
$$
  *****  WEATHER ELSEWHERE ACROSS MINNESOTA  *****

CITY           SKY/WX    TMP DP  RH WIND       PRES   REMARKS
DULUTH         CLOUDY    59  57  93 CALM      29.85S FOG
INTRNTL FALLS  FOG       50  50 100 CALM      29.84S VSB 3/4
ELY            CLOUDY    61  59  94 CALM      29.85S
CLOQUET        FOG       61  57  88 CALM      29.85S VSB<1/4
BRAINERD       FOG       58  58 100 CALM      29.85R VSB 1/4
HIBBING        FOG       52  50  93 CALM      29.85S VSB 1/4
ALEXANDRIA     CLEAR     63  61  93 E5        29.83S
SAINT CLOUD    MOCLDY    63  61  93 E5        29.83R FOG
MINNEAPOLIS    PTCLDY    67  65  93 E3        29.82R
$$

  *****  WEATHER ACROSS SOUTH DAKOTA  *****

CITY           SKY/WX    TMP DP  RH WIND       PRES   REMARKS
SIOUX FALLS    CLOUDY    68  64  87 CALM      29.81R
BROOKINGS      NOT AVBL
WATERTOWN      CLOUDY    64  60  87 SE3       29.79F
HURON          LGT RAIN  68  63  84 S9        29.75R
SISSETON         N/A     59  59 100 CALM      29.76F
ABERDEEN       MOCLDY    61  61 100 SE6       29.74F
MITCHELL       CLOUDY    70  65  84 W23       29.80R THUNDER
PIERRE         PTCLDY    68  57  68 SE9       29.69S
MOBRIDGE       PTCLDY    66  63  90 S9        29.69R
RAPID CITY     MOCLDY    67  56  67 SE9       29.71F
$$

  *****  SOME WEATHER IN NEARBY STATES *****

CITY           SKY/WX    TMP DP  RH WIND       PRES   REMARKS
GLASGOW MT     MOCLDY    67  53  61 N9        29.60R
GREAT FALLS MT FAIR      58  52  80 CALM      29.78R
CHEYENNE WY    CLOUDY    63  50  62 NW8       29.96S
SCOTTSBLUFF NE CLOUDY    65  59  81 E5        29.83R
OMAHA NE       CLOUDY    75  67  76 SE7       29.76S
DES MOINES IA  TSTM      72  67  84 SW13      29.80S
DAVENPORT IA   CLEAR     60  58  92 SW3       29.83F
CHICAGO IL     CLEAR     67  60  78 W6        29.82R
EAU CLAIRE WI  CLEAR     61  61 100 CALM      29.83R
LA CROSSE WI   CLEAR     65  63  93 SE3       29.81S
$$

  *****  SOME NATIONAL WEATHER *****

CITY           SKY/WX    TMP DP  RH WIND       PRES   REMARKS
LA GUARDIA NY  MOCLDY    71  64  78 S5        29.96R
RALEIGH NC     FOG       73  70  90 E6        29.94R VSB 1/2
ATLANTA GA     PTCLDY    73  71  93 W7        29.99R
NEW ORLEANS LA MOCLDY    79  75  87 CALM      29.99R
OKLAHOMA CITY  MOCLDY    74  67  78 S8        29.88R
ALBUQUERQUE NM CLOUDY    69  52  54 SW3       30.05R
SALT LAKE CITY MOCLDY    61  59  93 SE10      29.93S THUNDER
LOS ANGELES CA CLOUDY    70  58  65 E5        29.89S
BOISE ID       FAIR      70  44  39 S7        29.79S
SEATTLE WA     MOCLDY    59  52  77 S6        29.89R
$$

*** WEATHER ACROSS MANITOBA...SASKATCHEWAN AND ONTARIO ***
                ***ONTARIO***

CITY           SKY/WX    TMP DP  RH WIND       PRES   REMARKS
GERALDTON      CLOUDY   N/A N/A N/A NE3         N/A  FOG
THUNDER BAY    CLOUDY    61  61 100 SW3       29.81S
SIOUX LOOKOUT  PTCLDY    52  52 100 CALM      29.86
TORONTO        MOCLDY    64  59  82 NE6       29.85R
BIG TROUT LK   CLEAR     61  55  82 S5        29.87R
PICKLE LAKE    NOT AVBL
DRYDEN         FOG       55  55 100 NE2       29.85S VSB 3/4
KENORA         CLEAR     59  59 100 SE3       29.85R
$$
                *** MANITOBA***

CITY           SKY/WX    TMP DP  RH WIND       PRES   REMARKS
BRANDON        FOG       59  59 100 E6        29.73R VSB 3/4
DAUPHIN        CLEAR     57  55  94 W7        29.70R FOG
ISLAND LAKE    PTCLDY    64  59  82 S5        29.80R
PILOT MOUND      N/A     61  59  94 SE7         N/A
THE PAS        CLEAR     64  61  88 SE8       29.64F
THOMPSON       MOCLDY    63  63 100 E3        29.69R
WINNIPEG       PTCLDY    64  61  88 SE10      29.77S
LYNN LAKE      FOG       54  54 100 MISG      29.73R VSB 1/2
CHURCHILL      LGT RAIN  46  46 100 SE10      29.81S
GILLAM         PTCLDY    59  59 100 SE7       29.73R
$$
                ***SASKATCHEWAN***

CITY           SKY/WX    TMP DP  RH WIND       PRES   REMARKS
ESTEVAN        PTCLDY    61  59  94 NE7       29.63F
KINDERSLEY     LGT RAIN  63  61  94 N10G17    29.67R
LLOYDMINSTER   CLOUDY    57  54  88 NW7       29.69R
PRINCE ALBERT  TSTM      63  61  94 SE7       29.64R
REGINA         MOCLDY    64  57  77 SE13      29.59F
YORKTON        PTCLDY    63  61  94 E6        29.67S FOG



USA.gov is the U.S. government's official web portal to all federal, state and local government web resources and services.